[[{"header":{"parameterUnit":"m.s-1","parameterCategory":1,"la1":30.2991,"la2":30.254,"lo1":-89.0895,"lo2":-89.0444,"dy":0.0017,"dx":0.0017,"nx":28,"ny":28,"refTime":"2025-11-08T03:00:00:Z","depth":0,"parameterNumber":2,"parameterNumberName":"U-component_of_WINDS"},"data":[0,0,0,0,0,0,0,0,0,0,0,0,0,0,0,0,0,0,0,0,0,0,0,0,0,0,0,0,0,0,0,0,0,0,0,0,0,0,0,0,0,0,0,0,0,0,0,0,0,0,0,0,0,0,0,0,0,0,4.199,4.1991,0,4.2096,4.2097,4.2099,4.2023,4.202,4.2016,4.2013,4.2123,4.2129,4.2135,0,0,0,0,0,0,0,0,0,0,0,0,0,4.1724,4.1729,4.199,4.1991,4.1992,4.2096,4.2097,4.2099,4.2024,4.2019,4.2015,4.2011,4.2121,4.2128,4.2136,0,0,0,0,0,0,0,0,0,0,0,0,0,4.1836,4.1731,4.1989,4.1967,4.1966,4.2096,4.2098,4.2099,4.2024,4.2019,4.2014,4.201,4.2119,4.2128,4.2137,4.2294,0,0,4.2165,4.2169,0,0,0,0,0,0,0,0,4.183,4.1846,4.1969,4.1969,4.1968,4.2041,4.2044,4.2165,4.2026,4.2002,4.2013,4.2007,4.21,4.211,4.2142,4.23,4.2304,4.2165,4.2171,4.2175,4.2178,0,0,0,0,0,0,0,4.1822,4.1841,4.2032,4.1971,4.197,4.1953,4.1963,4.2067,4.2078,4.2004,4.1999,4.2012,4.2099,4.2133,4.2144,4.2306,4.2165,4.2173,4.2179,4.2183,4.2604,4.2609,0,0,0,0,0,0,4.1816,4.1835,4.2028,4.2035,4.1885,4.1962,4.1973,4.2023,4.2077,4.208,4.2017,4.2008,4.212,4.2133,4.2147,4.2339,4.2175,4.2183,4.2189,4.2598,4.2605,4.2611,0,0,0,0,0,0,4.1811,4.1834,4.2024,4.1934,4.1956,4.1972,4.2028,4.2028,4.2061,4.2086,4.2088,4.2049,4.2116,4.2134,4.2259,4.2341,4.2188,4.2196,4.2591,4.26,4.2608,4.2721,0,0,0,0,0,0,4.1803,4.1833,4.1892,4.1936,4.1962,4.2134,4.2033,4.2033,4.2077,4.2068,4.2118,4.2121,4.2114,4.2246,4.2269,4.2351,4.2203,4.2584,4.2595,4.2605,4.271,4.2733,4.2752,0,0,0,0,0,4.1794,4.1918,4.1895,4.1919,4.2036,4.2138,4.2153,4.2142,4.2084,4.2145,4.2161,4.2119,4.2329,4.226,4.2284,4.2371,4.2579,4.2592,4.2604,4.2701,4.2728,4.2751,0,0,0,0,0,0,4.1883,4.1924,4.1898,4.204,4.2087,4.2125,4.2201,4.2171,4.2235,4.2223,4.2207,4.2219,4.2351,4.2373,4.2295,4.2529,4.2445,4.2463,4.251,4.2536,4.2556,4.2549,4.2211,0,0,0,0,0,4.1919,4.1999,4.203,4.2152,4.2177,4.2186,4.223,4.2218,4.2265,4.2284,4.231,4.2358,4.2435,4.2486,4.2558,4.2713,4.2724,4.2785,4.2805,4.2822,4.2839,4.2926,4.2955,4.2653,4.2653,4.2653,0,0,4.1994,4.2026,4.2077,4.2171,4.2205,4.229,4.2202,4.2294,4.2357,4.2298,4.2419,4.244,4.2493,4.2635,4.2698,4.2657,4.2925,4.2839,4.2852,4.286,4.2943,4.2971,4.2997,4.2662,4.266,4.2659,0,0,4.2175,4.2206,4.2314,4.2351,4.2405,4.241,4.2436,4.2481,4.2493,4.2614,4.2572,4.2648,4.2779,4.282,4.2858,4.306,4.3025,4.3083,4.3192,4.3278,4.3302,4.3323,4.3398,4.3425,4.3099,4.31,4.31,0,4.2262,4.2387,4.2372,4.2469,4.2513,4.2464,4.2575,4.2611,4.2686,4.2719,4.2671,4.2839,4.287,4.3023,4.3073,4.3104,4.3135,4.3078,4.3299,4.332,4.334,4.3411,4.3439,4.3107,4.3106,4.3105,4.3105,0,4.2493,4.2581,4.2661,4.2737,4.2789,4.2892,4.2895,4.295,4.2934,4.2946,4.3071,4.3108,4.3189,4.3224,4.3208,4.3376,4.3349,4.3301,4.3217,4.3376,4.3443,4.347,4.3117,4.3114,4.3112,4.311,0,0,4.2732,4.28,4.283,4.2866,4.2924,4.2992,4.3094,4.3173,4.3223,4.3276,4.3364,4.3478,4.3435,4.3479,4.3467,4.3542,4.3704,4.3485,4.3486,4.3528,4.3895,4.3933,4.3965,4.3681,4.3686,4.369,4.3892,0,4.2919,4.3097,4.3088,4.3256,4.3339,4.3295,4.3385,4.3431,4.3445,4.3518,4.3533,4.3616,4.3551,4.3578,4.365,4.3669,4.3778,4.3654,4.3764,4.3768,4.3755,4.3999,4.4039,4.4228,4.3918,4.3922,4.3925,0,4.316,4.3224,4.34,4.345,4.3484,4.3564,4.3639,4.3708,4.3761,4.3766,4.3817,4.3795,4.3901,4.3813,4.396,4.3876,4.3921,4.3938,4.3945,4.3956,4.3858,4.4021,4.4287,4.4317,4.3966,4.3963,4.396,0,4.3321,4.3451,4.3574,4.3605,4.3665,4.3723,4.3751,4.3799,4.3848,4.3913,4.3946,4.4022,4.4065,4.4125,4.4126,4.4061,4.4276,4.4187,4.4286,4.4286,4.4334,4.4332,4.4615,4.4359,4.4359,4.4358,4.4357,0,4.3531,4.3642,4.3648,4.3724,4.3848,4.3838,4.3961,4.3982,4.4026,4.4107,4.4073,4.415,4.4145,4.4223,4.4224,4.4348,4.4367,4.4376,4.4375,4.438,4.438,4.4411,4.4399,4.4365,4.4364,4.4362,4.4361,0,4.3732,4.374,4.3873,4.392,4.3934,4.4023,4.4064,4.4137,4.4149,4.4253,4.4276,4.4295,4.4386,4.4392,4.4497,4.4498,4.465,4.4633,4.4632,4.463,4.473,4.4721,4.5045,4.5088,4.4802,4.4804,4.4806,0,4.3867,4.3952,4.4008,4.4061,4.4092,4.4176,4.4228,4.4222,4.4277,4.4346,4.4412,4.45,4.457,4.4719,4.4743,4.4824,4.481,4.4918,4.4822,4.4826,4.4816,4.4812,4.4822,4.4938,4.4941,4.4943,4.4945,0,4.4107,4.4108,4.4183,4.4262,4.4324,4.4385,4.4442,4.4487,4.4489,4.4553,4.4646,4.4701,4.4809,4.4898,4.4978,4.5008,4.4979,4.4975,4.5003,4.501,4.5008,4.5014,4.4686,4.4968,4.4966,4.4964,4.4963,4.4962,4.4281,4.4356,4.4409,4.4495,4.4538,4.4593,4.4665,4.4687,4.4765,4.4853,4.4845,4.495,4.5004,4.5109,4.5145,4.5228,4.5191,4.5231,4.5241,4.5252,4.5264,4.4993,4.5242,4.5241,4.5241,4.524,4.524,0,4.4523,4.4555,4.4635,4.4717,4.4785,4.4751,4.4814,4.4874,4.4966,4.5019,4.509,4.52,4.5287,4.5319,4.5404,4.5465,4.5454,4.5487,4.5484,4.5492,4.529,4.5259,4.5495,4.5495,4.5495,4.5495,4.5495,4.5495,4.4656,4.4782,4.479,4.4938,4.4969,4.5072,4.5111,4.5163,4.5206,4.533,4.5402,4.5422,4.5468,4.5557,4.5637,4.5644,4.5679,4.5719,4.5721,4.5532,4.5506,4.5481,4.5452,4.5726,4.5726,4.5917,4.5919,4.592]},{"header":{"parameterUnit":"m.s-1","parameterCategory":1,"la1":30.2991,"la2":30.254,"lo1":-89.0895,"lo2":-89.0444,"dy":0.0017,"dx":0.0017,"nx":28,"ny":28,"refTime":"2025-11-08T03:00:00:Z","depth":0,"parameterNumber":3,"parameterNumberName":"V-component_of_WINDS"},"data":[0,0,0,0,0,0,0,0,0,0,0,0,0,0,0,0,0,0,0,0,0,0,0,0,0,0,0,0,0,0,0,0,0,0,0,0,0,0,0,0,0,0,0,0,0,0,0,0,0,0,0,0,0,0,0,0,0,0,-0.018,-0.0178,0,-0.0024,-0.0022,-0.002,0.0025,0.0024,0.0023,0.0022,0.0185,0.019,0.0195,0,0,0,0,0,0,0,0,0,0,0,0,0,-0.0438,-0.0433,-0.018,-0.0178,-0.0176,-0.0024,-0.0022,-0.002,0.0025,0.0024,0.0023,0.0022,0.0183,0.0189,0.0196,0,0,0,0,0,0,0,0,0,0,0,0,0,-0.0308,-0.0432,-0.0181,-0.0136,-0.013,-0.0024,-0.0022,-0.0019,0.0025,0.0024,0.0022,0.0021,0.0181,0.0189,0.0196,0.027,0,0,0.022,0.0223,0,0,0,0,0,0,0,0,-0.0316,-0.0299,-0.0144,-0.0139,-0.0132,-0.002,-0.0053,0.0078,0.0025,-0.0034,0.0022,0.002,0.0118,0.0131,0.0163,0.0278,0.0285,0.0221,0.0225,0.0229,0.0231,0,0,0,0,0,0,0,-0.0325,-0.0305,-0.0118,-0.0142,-0.0135,-0.0123,-0.0106,-0.0028,0.0047,-0.0029,-0.0025,-0.0007,0.0121,0.0155,0.0167,0.0287,0.022,0.0227,0.0232,0.0235,0.047,0.0472,0,0,0,0,0,0,-0.0342,-0.0313,-0.0123,-0.0113,-0.0229,-0.0117,-0.0098,-0.0055,0.0047,0.0061,-0.0007,-0.0006,0.0143,0.0158,0.0173,0.0266,0.0229,0.0236,0.024,0.0469,0.0471,0.0472,0,0,0,0,0,0,-0.0347,-0.0325,-0.0129,-0.0212,-0.0186,-0.0111,-0.0063,-0.0051,-0.0017,0.0064,0.0077,0.0015,0.0143,0.0162,0.0245,0.0272,0.0239,0.0246,0.0467,0.0469,0.0471,0.0452,0,0,0,0,0,0,-0.0355,-0.0327,-0.0299,-0.0212,-0.0182,-0.0061,-0.0062,-0.0047,-0.0004,-0.0002,0.0087,0.0101,0.0143,0.0234,0.0253,0.0282,0.0252,0.0465,0.0468,0.0471,0.0451,0.0454,0.0456,0,0,0,0,0,-0.0364,-0.031,-0.0298,-0.0275,-0.0146,-0.0059,-0.0042,0.0005,-0.0002,0.0028,0.0079,0.0098,0.0266,0.0242,0.0264,0.0296,0.0463,0.0467,0.047,0.045,0.0453,0.0456,0,0,0,0,0,0,-0.0395,-0.0298,-0.0283,-0.02,-0.0138,-0.0052,-0.0013,0.0007,0.0073,0.0072,0.0128,0.0148,0.0227,0.027,0.0241,0.0373,0.0365,0.0373,0.0342,0.0346,0.0348,0.0336,0.0259,0,0,0,0,0,-0.0393,-0.0332,-0.0249,-0.0183,-0.0153,-0.0089,-0.0049,-0.0019,0.0048,0.0074,0.0132,0.0196,0.0264,0.0307,0.0374,0.0457,0.0477,0.049,0.0493,0.0495,0.0501,0.0548,0.0555,0.0484,0.0484,0.0484,0,0,-0.0386,-0.0325,-0.029,-0.0188,-0.0137,-0.0074,-0.0067,-0.0001,0.0047,0.0085,0.0167,0.0211,0.0287,0.037,0.041,0.0408,0.0525,0.0499,0.05,0.0506,0.0553,0.0559,0.0565,0.0487,0.0486,0.0486,0,0,-0.0342,-0.029,-0.023,-0.0179,-0.0101,-0.0059,-0.0045,0.0039,0.007,0.0152,0.0182,0.024,0.0355,0.0408,0.0449,0.0513,0.0533,0.0533,0.0547,0.0592,0.0598,0.0603,0.0626,0.0633,0.0539,0.0539,0.0539,0,-0.0343,-0.0248,-0.0201,-0.0136,-0.0092,-0.0056,0.0006,0.0054,0.0149,0.0179,0.0176,0.0321,0.0374,0.0471,0.0486,0.0519,0.0537,0.0523,0.0593,0.0599,0.0605,0.0627,0.0635,0.0539,0.0539,0.0539,0.0539,0,-0.0254,-0.0188,-0.0149,-0.0059,-0.001,0.0053,0.0111,0.0155,0.0181,0.0224,0.0308,0.0373,0.0453,0.0479,0.0506,0.0579,0.0575,0.0582,0.0576,0.061,0.0632,0.0641,0.0538,0.0538,0.0538,0.0538,0,0,-0.0225,-0.011,-0.0096,-0.0055,0.0033,0.0085,0.015,0.0227,0.0264,0.0328,0.0384,0.048,0.0487,0.0534,0.0567,0.0607,0.0653,0.0609,0.0612,0.0615,0.0738,0.0733,0.0742,0.0667,0.0669,0.067,0.0732,0,-0.017,-0.0054,-0.0009,0.0086,0.0148,0.0183,0.0239,0.03,0.0342,0.04,0.0447,0.0514,0.0518,0.0546,0.0587,0.0639,0.0679,0.0635,0.072,0.0722,0.07,0.0753,0.0748,0.0803,0.0741,0.0742,0.0743,0,-0.009,-0.0026,0.0075,0.0155,0.0182,0.0232,0.0307,0.0362,0.0431,0.0459,0.0512,0.0542,0.0612,0.0601,0.0698,0.0668,0.0705,0.0736,0.0739,0.0749,0.0735,0.0764,0.0822,0.083,0.0757,0.0756,0.0755,0,-0.0079,0.0033,0.0107,0.0142,0.0237,0.0271,0.0312,0.038,0.0424,0.0489,0.0518,0.0591,0.0632,0.0688,0.0737,0.0725,0.083,0.0823,0.0856,0.0854,0.0876,0.0874,0.094,0.09,0.09,0.09,0.09,0,-0.0022,0.0038,0.0113,0.0159,0.0228,0.0279,0.0346,0.039,0.045,0.0506,0.0541,0.0593,0.0655,0.0715,0.0755,0.0829,0.0847,0.0872,0.0882,0.0869,0.0866,0.0894,0.0892,0.0902,0.0902,0.0901,0.0901,0,0.0002,0.0054,0.0138,0.0221,0.0243,0.029,0.0362,0.0408,0.0451,0.0521,0.0541,0.0609,0.0681,0.0736,0.083,0.0857,0.0936,0.0946,0.0912,0.0917,0.0946,0.0943,0.1033,0.1047,0.0997,0.0998,0.0998,0,0.0034,0.0081,0.0169,0.0208,0.0249,0.0312,0.0356,0.0409,0.0454,0.0536,0.0572,0.0647,0.0709,0.0823,0.0882,0.0954,0.0966,0.0993,0.0977,0.0963,0.0967,0.0963,0.0968,0.0995,0.0995,0.0995,0.0996,0,0.0086,0.011,0.0172,0.0244,0.0295,0.0354,0.0414,0.0445,0.0508,0.0557,0.0631,0.0679,0.0774,0.0848,0.0926,0.097,0.0993,0.1,0.1011,0.0998,0.0977,0.0989,0.0918,0.0998,0.0997,0.0997,0.0997,0.0997,0.0116,0.0159,0.0227,0.0295,0.0346,0.0401,0.0448,0.0497,0.0559,0.064,0.0668,0.0744,0.0812,0.0919,0.0963,0.1024,0.1025,0.1041,0.1045,0.1048,0.1047,0.0967,0.1039,0.1039,0.1039,0.1039,0.1039,0,0.017,0.0215,0.0277,0.0359,0.0413,0.043,0.0497,0.0541,0.0607,0.0668,0.0728,0.0813,0.0885,0.0949,0.1023,0.1059,0.1072,0.1077,0.1075,0.1085,0.1043,0.1025,0.1066,0.1066,0.1066,0.1066,0.1066,0.1066,0.0204,0.0278,0.031,0.041,0.0455,0.0529,0.0566,0.0617,0.0666,0.0759,0.0818,0.0859,0.0922,0.1001,0.1067,0.1084,0.111,0.1112,0.1132,0.1091,0.1088,0.1085,0.1069,0.1118,0.1118,0.117,0.117,0.117]}]]